GFSSGP_sfc_dewp_000.txt.gz
Dewpoint
71 69 67 61 52 36 37 36 40 41 46 49 59 60 53 61 55 56 64 67 68 68 71 73 78 77 77 77 77 77 77 78 78 78 77 77 78 78 78 78 78 77 77 76 75 75 75 75 75
64 65 60 58 35 29 33 40 42 44 45 48 52 56 57 58 61 64 65 67 67 67 69 71 78 78 77 77 77 78 77 77 78 77 77 77 77 77 77 77 77 76 76 75 75 75 74 73 73
63 64 57 44 34 31 35 39 41 41 44 47 51 55 56 59 62 65 66 68 68 71 73 75 78 78 77 77 78 78 78 78 78 78 77 77 77 76 75 76 76 76 76 75 74 74 73 73 72
61 58 56 29 29 33 35 37 39 42 45 50 53 53 57 63 64 66 67 69 70 71 72 76 78 77 78 78 78 78 78 78 78 77 77 76 76 76 75 75 75 75 74 74 74 73 73 73 72
62 63 42 33 33 34 33 35 38 39 42 47 54 55 58 65 66 67 68 68 69 70 72 75 79 79 78 78 78 78 78 78 77 77 76 77 76 75 75 75 74 74 73 73 73 73 72 72 73
55 56 37 35 34 36 31 32 37 39 45 50 54 56 59 64 64 67 68 68 68 69 71 73 78 78 78 78 78 78 78 77 77 77 76 77 76 75 74 74 74 73 72 72 72 73 72 72 73
48 47 36 37 41 41 46 34 38 41 45 50 54 56 59 60 62 64 66 69 68 70 71 74 74 76 77 78 77 78 78 77 77 77 76 76 75 75 74 74 73 72 72 72 73 73 73 74 74
52 51 33 37 39 42 45 35 39 43 45 49 54 54 56 59 61 61 65 66 68 69 72 74 75 74 76 76 78 77 78 77 76 76 75 75 75 75 73 74 74 73 73 72 73 74 74 74 75
49 40 31 32 34 38 41 41 42 44 47 49 52 55 58 59 60 62 65 67 68 69 70 70 73 75 77 76 74 77 77 77 76 75 75 75 72 73 67 65 69 74 74 73 73 74 75 74 74
30 30 30 31 33 48 51 44 45 46 48 49 49 56 58 59 58 62 61 63 64 67 69 69 70 73 74 71 76 76 74 74 74 74 76 74 74 75 71 65 69 74 74 74 74 74 74 72 70
27 24 27 34 36 49 47 51 57 59 49 50 53 56 58 59 59 59 62 63 65 67 67 68 74 75 75 74 74 74 74 73 73 76 77 78 76 73 73 74 73 75 75 73 73 73 72 71 71
26 32 31 30 41 39 36 45 50 55 57 54 54 56 58 58 58 58 59 61 65 65 68 71 73 75 76 73 72 73 72 74 71 75 77 77 75 77 76 74 75 76 74 75 75 73 75 72 72
29 32 32 37 38 36 41 46 52 49 54 53 53 56 57 57 58 58 59 60 65 65 66 70 75 75 78 76 77 72 73 70 73 74 76 75 76 76 75 76 74 74 75 74 74 74 73 72 71
31 32 31 33 32 37 41 46 50 53 54 53 54 55 56 56 57 59 59 61 64 66 66 69 73 76 76 78 78 79 75 74 76 75 74 76 75 76 74 75 74 76 73 75 74 75 73 73 72
31 31 32 31 37 38 38 45 50 54 55 55 55 56 56 56 57 59 59 62 64 64 67 70 70 74 76 77 78 78 75 71 72 74 77 76 77 77 76 75 74 73 75 76 75 74 73 72 70
29 31 29 35 40 39 41 45 52 53 55 55 56 56 57 59 59 60 60 62 64 65 71 71 67 72 75 76 77 76 74 74 76 74 73 75 76 76 76 74 73 73 74 73 72 73 71 71 71
29 28 32 36 40 38 39 44 50 51 52 53 55 55 57 58 61 62 63 65 67 69 71 72 72 73 75 76 77 76 77 77 76 75 76 75 76 75 76 75 74 75 73 72 71 71 73 71 69
27 29 33 35 36 40 40 42 47 47 49 51 52 54 56 57 57 63 65 65 66 70 72 74 73 75 76 78 78 76 77 74 74 76 75 76 77 75 77 76 74 74 74 73 73 72 72 71 70
27 27 33 33 41 42 40 40 44 43 46 50 51 53 53 53 59 60 63 66 66 67 73 73 76 77 77 77 77 78 76 78 75 75 76 76 77 75 76 76 74 75 73 73 73 72 71 69 72
20 23 24 29 33 35 43 43 44 42 43 47 50 52 52 53 56 59 61 60 63 69 73 74 76 78 78 78 79 76 76 76 75 74 76 75 74 75 74 75 73 72 71 72 72 72 70 69 71
19 17 20 27 30 30 33 41 45 44 44 45 46 51 51 52 54 59 61 62 64 67 71 74 76 77 77 78 78 78 76 75 73 74 71 73 70 71 73 73 73 73 73 68 71 71 69 68 70
17 16 16 17 25 25 33 29 46 44 42 44 45 47 48 51 54 57 59 62 63 67 70 74 76 77 77 76 76 75 71 67 72 72 71 70 70 71 71 72 72 72 72 71 70 70 70 71 68
16 16 15 16 18 20 24 28 41 43 42 42 43 44 46 49 51 53 56 60 62 66 68 73 76 77 75 74 73 70 71 67 69 69 70 72 71 71 69 71 71 71 70 70 70 70 70 69 70
15 23 20 18 18 20 23 28 37 46 48 43 44 44 47 47 50 52 55 59 61 64 67 71 74 75 74 73 72 70 69 69 68 69 68 67 68 68 71 70 71 71 70 70 69 70 69 69 69
17 23 23 22 22 21 23 24 37 40 41 46 51 54 46 48 51 53 54 57 62 65 67 71 73 73 73 71 70 68 68 70 70 70 69 69 66 68 70 71 71 69 70 70 69 69 69 68 68
19 22 22 27 21 20 26 28 34 31 39 49 50 49 46 47 53 55 58 59 63 65 69 69 72 72 72 71 71 71 71 69 70 71 68 67 67 67 69 69 69 69 69 69 69 68 68 68 68
22 22 19 20 19 17 22 27 28 30 30 29 34 33 45 46 48 53 57 61 64 65 68 70 72 73 72 70 73 72 72 71 71 71 71 67 71 65 68 68 69 69 69 69 70 67 67 67 67
21 22 19 19 27 24 20 23 24 38 33 31 30 31 38 48 49 50 55 61 66 66 68 69 71 72 70 70 70 70 71 70 71 70 70 70 70 70 69 68 68 68 68 68 68 68 66 67 66
19 21 21 18 20 20 20 26 35 40 36 31 32 35 36 39 50 53 56 62 67 65 66 66 68 70 69 69 70 69 67 67 69 69 69 69 71 71 69 69 68 67 67 67 67 67 67 65 66
17 22 26 25 31 28 28 24 30 31 30 30 34 34 39 44 49 56 56 62 66 65 64 63 64 65 66 68 70 69 69 68 69 69 68 69 69 70 69 69 68 67 66 67 66 65 66 65 65

GFSSGP_sfc_dewp_006.txt.gz
Dewpoint
74 72 69 67 56 46 45 50 51 53 55 59 58 58 59 60 55 54 67 71 72 73 74 75 77 77 77 77 77 77 78 78 78 78 78 78 78 78 77 77 76 77 76 75 75 75 75 74 74
70 68 67 63 50 38 40 49 52 51 56 58 59 60 60 60 63 64 68 71 73 73 74 75 77 78 77 77 77 78 77 77 78 78 78 78 78 78 77 76 76 76 75 75 74 74 74 73 73
66 65 62 58 45 37 43 50 52 52 56 57 58 61 61 63 65 66 69 71 72 74 75 75 77 77 77 78 78 78 78 77 78 78 78 78 77 76 76 76 75 75 75 75 74 74 73 73 73
63 60 58 46 35 38 50 53 54 54 55 60 61 60 63 65 65 67 69 71 72 74 74 77 77 77 77 78 78 78 77 77 78 78 77 77 76 75 76 76 76 75 75 74 74 74 73 73 73
62 56 48 36 36 38 51 54 54 56 58 60 61 62 62 66 69 70 71 71 72 74 75 75 77 77 77 78 78 78 78 77 77 77 77 77 77 76 76 76 75 74 74 74 73 73 73 73 73
50 52 48 45 39 33 48 53 55 60 62 62 62 62 64 67 69 70 71 72 73 74 75 75 77 77 77 78 77 78 77 77 77 77 77 77 77 76 76 75 75 74 73 73 72 73 74 74 74
49 52 48 46 44 47 52 54 56 61 61 61 62 62 64 66 69 70 70 72 73 75 76 76 76 76 77 78 78 77 77 77 77 77 77 77 76 75 75 75 75 74 73 72 73 74 74 74 75
51 49 46 47 45 38 51 49 56 59 57 63 62 62 63 65 68 69 70 71 72 74 76 76 76 76 77 77 78 76 77 77 76 76 76 76 76 75 74 74 76 74 74 73 73 74 75 75 75
53 49 45 45 43 43 41 49 55 56 61 59 59 62 65 66 67 69 69 71 72 73 74 75 76 76 76 77 76 77 77 77 77 76 76 77 74 73 68 72 72 73 74 74 73 74 74 75 74
46 46 45 47 48 45 44 46 50 56 57 58 60 62 65 66 67 68 69 69 70 72 72 73 75 75 75 76 75 75 75 76 76 75 75 74 73 73 73 71 70 70 74 74 74 74 74 74 71
44 42 44 46 47 50 51 52 55 55 56 58 58 60 65 66 67 68 68 69 70 71 72 72 74 74 75 75 75 74 75 75 75 74 74 74 73 73 71 71 71 72 73 72 73 73 72 71 70
42 42 44 46 52 49 50 51 47 55 56 59 59 61 64 65 65 67 67 68 69 70 70 71 73 73 74 75 75 75 74 74 74 74 74 73 72 70 72 72 72 72 72 71 72 72 71 70 70
37 41 44 47 48 49 50 48 50 55 57 58 58 60 61 63 64 65 65 67 68 68 69 72 73 73 73 73 74 74 74 74 74 74 74 74 72 71 72 72 72 72 72 71 71 71 70 70 70
39 44 47 48 49 49 46 47 47 56 58 57 57 59 59 60 61 62 64 65 66 68 70 72 72 72 72 72 73 72 72 73 72 73 73 73 72 71 72 72 71 71 71 72 72 71 71 70 70
40 42 43 47 48 50 52 51 51 54 57 57 58 58 59 59 61 62 64 64 64 68 70 70 71 72 72 72 73 73 73 73 72 72 72 71 73 72 72 70 70 71 71 71 71 70 70 69 70
32 33 34 41 48 50 50 50 51 55 56 56 57 58 58 59 59 62 64 64 65 67 70 70 70 72 72 73 73 74 73 73 73 72 71 71 73 73 72 70 69 71 70 70 69 68 68 68 68
28 28 36 37 42 47 50 50 52 52 53 54 55 56 57 58 59 61 64 64 64 65 68 69 70 72 72 73 74 73 73 73 73 73 72 72 72 72 72 70 71 70 69 69 68 68 68 68 67
26 33 34 35 36 43 49 50 52 53 53 53 54 55 56 57 58 61 62 63 64 66 67 66 68 72 73 73 73 73 73 72 72 72 71 72 71 72 72 71 70 70 70 69 69 68 67 68 67
27 35 34 35 34 48 49 50 52 53 54 54 55 57 57 58 59 60 61 63 65 67 67 67 68 71 72 72 71 71 70 71 71 72 72 72 72 72 71 70 70 69 68 68 68 67 67 66 66
24 30 35 38 36 38 49 50 51 53 54 55 56 58 58 61 60 61 63 65 66 66 67 69 69 72 72 72 71 71 71 71 72 72 72 71 70 71 70 70 69 68 67 66 65 65 65 65 67
22 32 34 34 37 41 47 47 49 52 53 53 55 58 58 61 60 61 63 64 66 67 69 70 71 72 72 72 72 72 71 70 68 69 69 67 64 65 67 67 66 66 66 65 65 65 64 63 65
18 24 33 37 36 36 41 40 45 47 48 49 52 55 57 60 62 63 63 63 65 68 70 70 72 72 72 72 72 69 66 60 65 66 65 63 63 65 64 65 67 66 66 65 65 67 65 64 62
19 21 21 38 35 35 40 39 42 45 43 44 50 54 55 59 62 63 63 63 66 68 70 71 72 73 73 71 71 64 59 61 65 65 63 62 62 64 65 67 66 65 65 64 65 64 64 64 63
20 18 20 25 27 28 35 34 36 43 42 42 45 53 53 57 61 63 64 63 67 68 70 72 71 71 67 65 61 57 60 60 62 62 60 61 60 65 66 65 64 64 63 64 64 64 63 63 63
17 15 14 15 17 16 20 36 34 44 42 41 44 52 53 56 58 61 61 62 67 68 69 71 71 69 63 61 59 58 59 59 59 59 61 61 64 63 63 63 63 61 62 63 64 63 62 62 62
15 15 18 15 21 18 23 20 21 43 44 43 44 51 52 55 56 58 59 60 65 67 68 70 69 67 63 61 61 61 61 59 59 62 63 58 60 63 63 62 62 62 62 63 64 63 62 62 62
14 18 22 22 32 24 24 27 38 42 43 42 43 47 49 53 56 57 58 60 64 66 68 70 67 65 64 62 63 61 61 63 64 64 61 60 63 62 62 62 62 62 64 63 63 63 64 61 61
14 19 19 22 18 18 23 26 31 43 43 44 44 44 45 51 55 56 58 60 64 64 68 70 67 65 64 64 62 61 62 63 63 63 61 63 61 62 61 62 62 63 63 63 62 62 61 61 61
22 21 21 22 23 19 19 24 34 42 44 45 46 45 46 49 52 54 57 58 63 64 67 69 68 66 64 65 64 64 64 63 63 62 62 62 62 64 64 64 63 62 62 63 63 62 61 61 61
22 21 23 22 18 24 23 26 37 39 40 44 45 47 47 46 50 53 55 57 61 63 67 68 68 67 66 66 66 65 65 64 63 62 62 62 63 62 61 62 62 62 63 63 63 62 62 61 60

GFSSGP_sfc_dewp_009.txt.gz
Dewpoint
74 72 69 67 54 47 49 50 52 53 55 60 59 59 59 60 55 53 67 70 71 71 73 74 76 76 76 76 77 76 76 76 77 77 77 77 77 76 76 76 76 76 75 75 75 74 74 74 73
71 68 67 62 42 41 44 51 52 53 57 60 60 60 60 60 62 66 68 72 73 74 74 75 76 77 76 77 77 77 77 77 77 77 78 77 76 76 76 76 75 75 75 74 74 73 73 73 73
68 66 61 57 41 42 46 50 52 55 59 58 59 61 61 61 65 66 69 72 73 74 75 75 77 77 76 76 77 77 77 77 77 77 77 77 76 75 75 75 75 75 74 74 74 73 72 72 72
63 60 58 40 36 41 51 51 52 55 56 61 61 61 64 66 65 68 71 73 73 74 74 76 76 76 77 77 77 77 77 77 77 77 77 76 75 75 75 75 75 74 74 74 73 73 72 72 73
62 55 44 35 36 51 53 52 53 54 59 60 61 61 62 67 68 69 71 72 72 73 75 75 77 77 77 76 76 76 76 77 77 77 75 75 75 75 75 75 74 74 73 73 73 73 73 73 72
50 50 42 42 42 52 54 54 55 59 61 62 61 62 64 69 68 70 71 71 73 74 75 75 77 77 77 76 76 76 75 75 76 76 76 76 76 75 75 75 74 73 73 73 73 73 73 73 73
49 49 46 44 43 51 53 57 60 60 59 60 62 61 66 68 69 70 70 72 73 75 75 75 75 75 77 77 76 76 76 75 75 76 76 76 76 75 75 75 74 74 73 73 73 74 74 74 74
50 45 45 45 44 48 54 55 61 59 59 62 63 61 62 68 70 70 71 73 74 75 75 75 75 75 75 76 77 76 76 75 75 76 76 76 75 74 74 75 75 74 74 74 74 74 74 74 74
53 45 41 44 43 44 53 55 61 62 61 59 61 63 64 68 69 70 71 72 73 74 75 75 75 75 75 76 75 76 75 76 76 76 76 76 74 73 70 71 73 72 74 74 74 73 73 74 73
48 43 43 46 45 45 49 55 57 59 59 60 61 64 66 68 69 69 69 70 71 72 73 74 75 75 75 76 75 75 74 75 74 75 75 74 73 73 72 72 73 70 72 74 73 74 74 73 71
46 44 46 46 48 43 48 52 55 59 57 59 61 63 65 66 68 68 69 70 70 72 73 73 74 75 75 75 74 75 75 74 74 74 73 73 73 72 71 71 71 71 72 72 72 73 72 71 71
36 44 45 46 52 48 49 52 56 57 58 60 63 65 65 66 67 68 69 69 70 71 71 72 74 74 74 74 74 74 74 73 74 73 73 73 72 70 69 71 71 72 71 71 71 71 71 71 71
32 40 44 47 50 50 48 50 53 55 58 61 64 65 65 66 67 68 69 69 70 71 71 72 73 73 74 73 74 73 73 74 73 73 73 73 72 70 71 72 72 72 71 71 71 70 70 70 70
39 44 46 48 48 49 50 54 55 57 59 59 63 65 65 66 66 67 67 68 69 70 70 71 72 73 73 72 73 73 73 73 73 73 73 73 72 71 71 71 70 70 71 71 71 70 70 70 70
44 45 47 49 50 46 51 50 55 57 58 59 62 63 64 64 65 65 66 67 68 68 69 71 72 72 72 71 72 71 73 72 72 72 72 72 72 71 71 70 69 70 71 70 70 69 68 68 68
42 41 44 47 50 51 51 50 56 57 56 57 58 60 61 63 62 63 65 66 67 68 70 71 71 71 72 72 72 72 73 72 72 72 71 71 72 72 71 69 69 70 70 70 69 68 67 67 67
30 40 39 44 47 50 51 50 55 57 56 56 57 58 58 59 61 62 64 65 65 68 70 70 70 71 71 72 72 73 72 72 72 72 71 71 71 72 71 69 70 69 69 68 68 68 67 66 66
36 34 42 43 47 47 50 50 55 56 56 56 57 57 58 58 59 62 64 64 65 68 70 70 70 71 71 72 72 73 72 72 72 71 71 71 71 71 71 70 70 70 68 68 68 67 66 66 66
28 34 41 42 43 49 49 50 52 55 55 55 56 57 57 58 59 61 64 64 64 66 68 68 69 71 71 71 70 70 71 71 71 71 72 72 71 71 70 70 69 69 67 67 67 66 65 65 65
22 27 35 37 45 47 49 50 50 52 53 54 54 55 56 57 58 60 62 63 64 65 66 66 67 70 71 71 70 70 70 70 70 71 72 71 71 71 70 69 68 68 66 65 64 64 64 64 66
24 24 30 35 40 49 49 49 51 53 53 53 54 55 56 57 58 59 61 62 64 65 66 67 67 70 71 71 71 71 70 69 68 69 69 68 69 69 68 68 66 65 65 64 64 64 63 62 64
26 26 29 35 36 40 47 43 46 51 52 54 55 56 57 59 58 59 61 63 64 65 66 67 69 71 71 71 70 69 68 66 64 66 67 65 63 64 65 64 65 65 65 64 64 66 64 63 61
25 25 23 33 35 40 41 40 44 49 49 51 53 54 57 59 59 59 61 62 64 65 68 68 70 71 71 71 71 69 64 62 64 64 64 62 62 64 64 66 66 65 64 63 64 63 63 63 62
28 21 20 29 33 34 41 36 37 46 48 50 51 52 57 58 60 60 61 62 63 66 68 70 70 71 71 71 70 67 61 62 63 62 61 59 61 62 64 66 64 64 63 63 63 63 63 63 62
19 16 16 24 30 32 33 36 36 44 48 49 49 50 55 57 61 61 62 62 63 66 68 70 70 70 71 69 66 63 59 61 62 61 59 61 62 63 64 63 63 61 61 62 63 62 61 61 61
17 16 17 12 20 23 27 35 37 39 45 47 48 48 53 55 60 62 63 62 63 66 67 69 70 70 68 65 61 57 59 59 59 59 61 60 62 62 62 62 62 61 61 62 62 62 62 61 62
17 15 16 15 29 22 23 26 29 39 41 44 44 44 52 54 58 61 62 62 63 65 67 68 70 70 67 62 59 58 59 59 59 61 62 58 60 62 62 62 62 62 62 63 61 62 62 62 61
14 18 17 19 17 20 21 23 26 33 41 44 43 44 50 53 56 59 62 62 64 66 67 68 69 69 67 61 59 60 60 61 62 63 61 60 62 61 62 61 62 61 62 62 61 61 61 61 61
21 18 19 20 22 17 18 23 32 32 42 43 43 44 48 52 56 57 59 60 61 65 66 67 69 68 66 62 62 61 61 62 63 62 61 61 62 61 61 61 62 62 62 61 61 61 61 60 60
15 18 18 16 18 23 21 22 30 36 44 44 44 44 47 50 54 56 57 59 59 62 64 67 68 67 66 63 63 61 62 62 62 62 61 61 61 62 63 63 63 62 62 62 62 61 62 61 60

GFSSGP_sfc_dewp_015.txt.gz
Dewpoint
75 73 71 68 51 49 48 49 52 54 54 59 58 56 58 60 55 54 66 68 69 69 71 73 75 75 74 75 75 75 76 76 77 77 76 75 74 75 75 76 76 75 75 74 74 74 73 74 74
71 69 67 61 46 44 47 51 52 54 58 60 60 60 59 59 62 64 66 69 69 68 71 72 76 75 75 75 75 76 75 75 77 77 76 75 75 75 75 75 75 75 75 74 74 74 73 73 73
68 66 61 48 46 42 47 51 54 57 59 58 59 61 59 61 64 64 67 70 71 71 72 74 75 76 75 75 75 75 77 75 75 76 75 75 75 75 75 75 75 74 74 74 73 73 73 73 73
64 62 54 41 42 48 50 53 57 58 59 60 58 58 62 64 63 66 69 70 70 71 72 75 75 75 75 75 75 75 76 76 76 76 75 75 75 75 74 74 74 74 74 73 73 74 73 73 73
60 54 40 42 46 51 52 55 57 57 59 58 59 58 60 67 67 68 69 70 70 71 73 74 76 76 76 76 76 77 76 75 76 76 75 75 75 75 74 74 74 73 73 73 73 73 73 74 74
51 49 39 39 47 52 52 56 58 59 60 59 58 58 62 68 66 68 68 69 69 70 72 73 75 76 76 75 76 76 75 75 75 75 75 75 75 74 74 73 73 73 73 73 73 74 74 74 74
49 45 43 42 49 51 52 56 57 58 59 58 59 58 64 65 65 68 68 70 70 70 72 73 74 75 76 77 75 75 76 75 75 75 75 75 75 74 74 74 73 73 73 73 74 74 73 74 73
49 46 43 44 46 46 54 57 60 57 58 61 60 59 60 65 66 68 68 69 70 70 73 74 75 74 74 73 75 75 75 75 75 75 75 75 75 74 73 74 74 74 74 74 74 73 72 73 72
50 42 40 42 46 47 55 55 60 60 60 59 61 61 61 67 67 66 68 69 71 71 73 73 73 74 75 75 73 75 75 74 74 74 75 74 73 73 73 72 73 73 73 73 74 73 72 73 72
47 43 40 42 46 48 54 56 59 59 57 58 61 64 66 68 66 65 65 66 68 70 71 73 73 73 74 71 75 75 73 72 73 74 75 74 75 74 73 71 74 73 71 73 73 73 72 71 70
47 42 44 45 46 51 53 55 58 58 55 57 61 64 66 66 66 65 65 65 67 69 70 71 74 74 74 75 74 75 74 74 73 75 75 75 74 74 73 73 71 72 72 71 71 73 71 71 72
41 43 43 45 48 51 52 55 55 57 52 57 62 64 65 65 65 64 64 66 67 69 70 71 73 75 75 74 73 73 73 73 72 72 76 75 73 73 74 71 73 75 75 73 73 72 73 72 72
32 31 40 45 49 51 54 54 54 56 57 60 63 64 65 65 65 66 66 66 68 69 70 72 74 74 75 76 73 73 73 72 72 73 74 73 72 76 76 73 74 76 75 73 75 75 73 72 70
29 36 42 47 47 52 51 54 54 55 61 62 63 64 64 65 66 67 66 67 68 69 70 72 73 75 75 75 76 75 74 74 73 73 73 75 74 77 77 76 76 76 74 73 75 75 72 71 70
46 45 48 48 48 50 52 53 53 57 61 61 62 63 64 65 66 66 67 68 69 68 69 70 72 73 75 75 75 75 74 77 73 72 76 75 76 76 75 77 77 74 73 74 73 72 72 69 69
42 44 41 48 48 51 48 43 52 59 60 60 60 62 63 64 65 67 67 68 69 69 70 71 69 71 73 74 74 74 74 74 75 75 77 75 75 75 76 77 75 75 74 72 72 71 70 69 68
42 36 41 46 47 50 48 43 52 58 59 59 60 61 62 64 65 67 68 69 69 71 71 72 72 72 74 75 75 75 77 77 78 74 74 75 76 75 76 75 76 74 73 74 72 71 70 66 64
37 39 41 43 47 49 48 48 55 58 58 59 60 61 62 63 65 67 68 68 69 70 72 73 72 74 75 74 75 74 75 74 74 77 76 75 76 74 74 75 74 74 74 71 71 71 70 68 67
36 39 39 45 48 47 47 47 53 57 57 57 59 61 61 62 64 66 67 68 69 70 71 72 73 75 74 73 73 73 71 75 74 77 74 75 75 75 75 75 73 73 70 71 71 70 69 67 69
39 38 39 44 48 46 47 47 52 55 57 57 58 60 61 62 63 65 66 67 68 69 71 72 73 75 75 73 73 73 73 73 73 74 75 75 75 75 74 74 71 72 69 71 70 70 67 66 69
37 39 40 39 45 48 48 44 49 54 56 57 57 57 59 60 61 63 64 66 67 68 70 72 74 75 75 75 74 74 74 74 73 73 73 73 74 74 74 73 71 72 69 66 69 69 68 64 68
27 36 41 41 41 38 45 36 47 50 55 56 56 56 57 58 60 60 62 64 66 67 69 72 73 74 74 75 74 74 71 70 71 71 71 73 74 73 73 72 71 71 67 69 69 68 69 68 64
27 31 36 40 40 40 45 39 38 51 51 53 55 55 56 56 58 58 60 63 65 66 67 69 73 74 74 75 75 73 73 71 71 70 73 74 73 72 70 69 69 69 68 69 69 69 69 67 65
29 30 33 39 37 35 37 39 33 46 50 50 52 55 56 56 57 58 60 62 64 66 67 68 72 74 74 74 74 74 74 73 71 69 68 70 69 68 69 68 69 70 69 68 67 69 69 68 68
26 25 25 27 31 26 32 41 38 40 46 48 48 53 54 55 56 58 60 61 64 66 67 68 72 73 73 73 73 74 74 74 73 71 68 69 67 65 67 69 70 69 70 68 68 69 68 67 66
25 23 23 26 25 24 36 35 36 42 41 47 50 51 53 55 57 58 62 63 64 65 68 69 71 72 72 72 74 75 75 72 71 71 68 67 67 65 68 68 69 69 68 67 68 66 66 67 66
25 24 23 23 24 24 28 38 37 40 41 43 46 50 52 54 56 58 60 61 64 66 68 69 71 72 73 72 74 74 75 74 72 71 70 68 68 64 68 68 69 68 66 67 68 65 66 67 67
21 22 19 22 27 24 23 28 23 37 40 42 44 47 50 54 56 57 60 62 64 65 68 69 71 72 72 71 73 73 73 72 72 71 68 68 68 67 68 68 67 66 67 67 68 65 66 67 65
18 19 23 21 23 23 21 22 35 37 41 39 42 45 48 53 55 58 61 63 65 65 66 67 69 71 71 72 73 74 72 71 70 69 67 67 68 68 68 68 66 66 66 67 67 67 66 66 66
13 19 22 22 29 23 22 21 29 35 36 38 41 44 47 53 55 58 60 62 63 65 64 65 67 68 70 71 73 72 71 68 69 63 65 66 67 67 67 67 67 66 66 66 67 66 64 66 66

GFSSGP_sfc_dewp_021.txt.gz
Dewpoint
73 70 69 69 62 56 46 45 49 51 52 53 54 58 56 63 55 53 64 66 67 67 70 71 75 74 75 75 74 75 74 75 76 76 76 75 75 76 75 75 75 75 74 74 74 74 73 73 73
68 68 67 63 51 46 44 48 49 51 53 54 54 54 56 56 58 61 64 66 65 65 67 68 75 75 75 75 74 74 74 74 74 75 75 75 75 75 75 75 74 74 74 74 73 73 73 73 73
67 66 62 56 44 44 43 49 48 51 51 52 53 55 57 58 60 63 65 64 64 68 70 72 75 75 75 75 75 75 74 74 74 74 74 75 75 75 74 74 74 74 74 73 73 73 73 73 73
65 61 58 39 34 42 45 48 49 49 52 53 55 55 57 59 61 63 65 66 67 67 69 73 75 75 75 75 75 75 75 75 74 74 75 75 74 74 74 74 73 73 73 73 73 73 74 74 73
61 55 40 32 36 41 46 47 49 50 50 51 54 56 57 61 62 63 65 65 66 67 69 71 76 75 75 75 76 75 75 74 74 74 75 74 74 74 74 73 73 73 73 73 74 74 73 73 73
54 44 29 29 33 39 45 47 46 48 50 51 54 57 59 62 63 64 65 66 66 67 68 72 76 76 76 75 75 74 74 74 74 74 74 74 74 74 73 72 72 72 73 73 74 74 73 73 72
51 42 29 29 33 35 41 45 44 46 48 51 55 56 60 61 63 63 64 64 64 66 68 71 72 74 76 75 75 74 74 75 74 74 74 74 74 73 72 72 72 72 73 73 73 73 72 72 71
49 41 28 31 31 33 39 43 44 45 47 51 55 56 58 61 62 61 61 61 64 67 67 70 72 71 74 74 74 74 74 74 74 74 74 74 74 74 73 73 73 72 72 72 72 72 71 72 71
47 41 35 30 32 34 39 40 44 48 48 50 51 55 58 61 61 60 60 62 65 66 68 69 69 70 71 71 73 74 74 74 74 74 75 73 71 72 72 73 72 73 73 73 71 72 72 72 73
44 49 38 33 38 37 38 38 44 45 48 50 51 55 59 61 61 60 59 62 64 66 66 67 67 68 68 65 73 71 70 69 70 70 74 70 70 71 69 71 72 73 72 73 73 73 73 73 71
39 43 36 34 37 39 39 39 42 45 45 48 51 56 58 59 60 60 59 61 63 67 66 64 69 69 67 72 69 68 68 67 68 72 72 70 69 69 67 71 73 74 73 72 72 71 69 72 69
36 43 37 37 36 38 38 41 38 41 43 47 52 56 58 58 58 58 59 61 64 65 64 64 67 71 70 68 66 66 65 65 65 68 73 72 69 69 70 67 74 73 69 72 74 71 71 68 73
33 35 33 31 36 36 38 41 39 38 43 47 53 56 57 57 58 58 59 60 63 64 64 65 68 72 72 73 67 66 66 65 65 66 70 69 67 69 69 70 69 73 74 72 70 72 74 70 69
30 31 29 29 32 37 38 40 42 41 46 49 54 55 56 56 56 58 59 61 63 65 65 66 68 71 72 73 74 70 68 68 66 66 68 73 70 70 68 74 74 73 72 72 70 75 72 73 72
28 28 33 32 33 36 38 39 40 44 49 50 53 54 54 55 56 58 59 61 63 64 65 66 68 69 73 73 73 71 68 67 68 69 71 71 75 74 74 73 70 72 75 73 73 73 72 69 68
27 30 28 31 33 37 38 37 41 46 47 50 51 53 54 55 55 58 59 61 63 64 66 67 65 67 71 74 72 70 68 73 73 67 73 73 74 75 75 71 72 74 73 74 72 70 71 62 60
27 26 28 31 34 39 39 47 42 46 45 46 51 51 53 55 56 58 59 61 62 64 66 67 68 67 70 74 72 72 75 73 69 75 71 72 73 74 73 70 73 73 72 73 70 71 65 62 58
27 26 28 35 33 39 38 43 43 47 45 43 48 50 52 53 55 58 60 61 62 64 66 69 68 71 74 73 77 73 74 71 69 69 72 76 72 74 72 70 72 72 71 70 73 69 65 62 59
28 29 28 29 32 36 39 39 43 47 47 45 44 49 50 52 55 58 60 60 61 64 67 69 72 76 72 70 71 71 69 69 68 69 72 75 74 74 75 72 72 72 70 70 68 65 65 59 63
25 28 29 29 33 34 37 37 42 46 48 48 46 47 49 50 53 57 60 60 62 65 68 72 74 77 75 72 73 71 70 65 66 71 76 73 72 74 72 73 73 73 66 70 67 66 61 58 62
23 26 28 27 34 37 37 38 38 42 47 49 48 47 48 49 50 54 58 61 62 64 68 73 76 77 77 77 74 73 72 69 67 65 67 72 72 72 73 74 71 72 68 58 66 65 65 59 60
22 25 26 27 38 37 35 33 39 39 41 46 49 49 47 49 50 51 56 60 61 64 67 73 76 78 77 78 74 76 70 66 64 65 65 66 68 69 70 69 70 70 63 70 65 63 65 65 60
21 26 28 27 28 34 33 31 35 38 38 40 45 48 48 47 49 50 53 58 61 63 65 69 76 78 78 78 77 72 73 66 65 64 73 73 74 69 67 70 69 68 61 67 67 66 67 64 60
18 25 27 26 27 30 33 34 33 37 38 38 40 46 49 48 49 52 53 56 58 61 64 66 75 78 79 78 78 78 77 73 67 68 67 65 66 67 70 69 69 68 65 67 66 67 67 66 66
17 21 24 24 24 24 33 31 41 34 37 37 37 39 46 50 48 50 53 54 58 62 64 66 74 78 79 78 77 77 78 77 75 73 67 68 63 64 72 72 71 67 69 68 68 68 67 65 64
16 18 23 27 23 23 28 31 32 37 34 36 36 34 39 49 50 49 52 54 56 61 67 69 73 77 78 78 78 79 79 72 71 73 67 63 61 63 74 71 70 68 68 68 68 64 63 66 64
14 18 20 22 24 23 24 29 31 35 34 35 35 33 33 45 49 49 50 51 54 61 67 69 72 76 77 76 79 78 78 77 72 75 75 68 71 62 68 70 69 69 68 69 68 63 65 66 66
10 16 20 23 29 28 24 27 27 35 35 33 33 31 33 37 46 48 49 52 55 57 63 68 72 76 77 76 77 76 77 78 77 77 76 74 73 70 71 69 68 68 69 69 69 66 67 67 64
9 11 20 21 24 23 23 26 28 35 36 34 33 33 32 35 43 48 49 51 56 56 59 65 69 73 75 75 76 76 76 75 77 75 76 75 74 74 71 71 70 69 69 69 70 69 67 66 68
11 13 17 26 31 25 24 22 26 28 30 31 32 31 32 33 36 44 48 51 53 58 57 61 65 67 72 74 76 76 77 76 75 76 75 76 75 74 72 72 71 69 68 67 67 67 65 66 65

GFSSGP_sfc_dewp_024.txt.gz
Dewpoint
73 71 69 65 61 59 51 50 52 52 52 54 57 61 58 63 54 56 65 68 69 69 71 72 75 75 75 76 76 76 77 77 77 77 77 77 77 77 77 76 76 75 75 74 74 74 74 73 73
69 68 70 65 57 51 48 50 55 54 51 58 60 62 56 56 59 63 66 67 66 66 67 69 76 75 75 76 76 76 76 76 76 77 77 77 77 76 76 75 75 74 74 74 74 74 74 74 73
67 67 67 64 50 51 47 50 48 51 54 53 56 62 57 59 61 63 65 65 65 66 70 73 76 76 76 76 76 76 76 76 76 76 76 76 76 75 75 74 74 74 74 74 74 74 74 74 73
68 66 63 55 44 50 46 45 47 47 52 54 54 55 58 61 62 64 64 64 66 68 69 74 76 76 76 76 76 76 76 76 76 76 76 75 74 74 74 74 73 73 73 73 74 74 74 74 73
68 65 56 37 40 45 45 50 50 47 52 54 55 56 59 61 62 63 64 66 67 67 70 72 76 76 76 76 76 76 75 75 76 76 75 75 74 74 74 73 72 72 73 73 74 74 73 73 73
61 57 50 30 32 41 43 50 49 47 51 54 55 58 59 61 64 64 65 66 66 67 69 72 76 76 76 76 76 75 74 74 75 75 74 74 74 74 73 72 72 72 73 74 74 73 73 72 71
54 51 41 27 31 36 39 41 45 45 49 51 57 57 58 60 63 63 63 65 65 67 70 73 73 75 76 76 75 75 74 75 74 74 74 74 74 73 73 72 72 72 73 73 73 72 72 72 71
53 50 42 32 30 31 38 41 41 42 49 52 56 54 56 60 63 62 64 66 65 67 69 72 74 74 75 73 75 74 74 74 74 73 73 73 73 74 73 74 74 72 72 72 72 72 71 72 72
58 53 42 36 31 33 38 37 43 47 46 51 53 55 57 58 59 62 64 63 65 66 67 69 70 74 74 73 72 74 74 74 73 73 74 75 74 74 72 75 74 72 72 72 72 73 74 74 75
57 52 43 44 38 34 38 38 41 42 45 47 54 56 57 57 58 58 63 63 64 66 65 68 67 69 72 68 74 74 72 71 72 73 76 74 73 74 73 73 73 71 72 72 74 75 73 75 72
53 52 47 45 41 36 36 37 39 43 43 47 53 56 57 56 57 56 62 62 66 67 66 67 70 71 69 73 72 72 71 71 72 76 75 76 73 73 71 73 76 74 75 73 74 72 68 71 72
48 47 45 40 36 39 36 37 37 43 43 47 54 57 58 56 55 54 59 60 66 66 67 66 72 74 73 72 70 70 70 71 70 72 76 77 75 74 74 72 75 75 74 74 74 72 73 72 72
32 45 42 32 33 36 38 38 36 39 44 47 53 56 57 57 56 55 56 60 65 65 66 69 72 75 77 76 73 71 72 69 70 73 74 74 74 72 74 75 74 75 74 73 73 75 73 72 72
28 30 32 29 29 32 39 39 37 38 43 47 51 54 55 56 56 58 58 60 64 65 65 68 70 74 76 77 79 78 75 75 69 72 73 76 76 77 74 75 75 75 74 73 75 76 76 74 73
26 27 28 28 29 32 37 38 38 40 43 47 50 53 54 55 56 58 59 61 64 64 66 68 70 73 75 76 76 77 75 71 74 72 75 76 78 77 78 77 75 75 76 73 76 76 75 74 71
23 25 26 28 29 32 34 39 37 41 41 45 50 51 53 54 54 58 59 62 64 65 69 70 65 70 74 76 76 73 71 73 74 74 72 73 77 77 78 75 74 74 74 75 74 74 74 71 67
22 22 25 29 30 33 32 45 45 43 41 44 48 50 51 54 55 58 58 61 64 67 70 69 70 69 73 76 75 75 75 74 76 72 73 75 77 76 77 75 74 76 75 75 74 74 71 69 67
21 22 25 29 31 32 34 47 45 44 41 43 45 49 51 52 53 58 58 60 62 65 69 71 70 75 75 74 76 77 74 77 73 75 75 74 76 77 75 74 74 76 75 75 74 72 71 68 67
21 24 25 29 36 32 39 51 52 51 43 39 44 46 48 51 54 57 58 60 62 65 69 71 73 76 76 75 73 73 73 74 73 74 73 75 77 77 77 76 76 76 75 74 72 70 68 67 68
22 24 27 29 39 38 34 45 49 47 45 42 42 45 47 49 52 57 60 60 62 66 69 72 73 77 76 74 75 73 72 72 71 72 76 75 76 77 76 75 75 75 72 71 70 69 68 67 69
22 23 27 29 32 33 32 33 35 42 45 45 44 44 45 48 49 56 59 60 62 65 70 72 74 76 75 77 75 75 76 77 73 74 73 74 76 76 75 76 76 75 73 71 71 70 69 66 69
21 22 24 25 30 31 36 30 41 40 45 44 43 44 44 47 49 50 56 61 61 65 69 73 75 75 76 75 76 75 71 72 72 74 73 74 75 74 75 76 74 74 72 72 71 70 69 69 66
21 23 23 23 26 34 39 34 38 42 43 44 43 43 43 46 47 48 53 59 61 64 67 72 75 76 76 77 76 75 75 70 72 72 75 76 76 75 73 74 75 73 70 73 70 70 70 70 68
18 20 22 22 25 29 35 35 37 40 43 42 43 44 47 46 48 49 52 58 61 63 66 69 75 76 76 77 76 76 75 73 73 74 72 72 72 73 74 74 73 73 71 72 71 70 70 70 70
10 15 20 22 24 24 31 37 40 40 41 40 43 45 46 48 48 51 52 55 61 63 65 69 74 76 77 76 77 76 77 76 76 78 71 70 68 69 73 75 73 72 72 73 72 71 71 69 69
9 12 20 25 23 23 26 26 36 42 41 42 45 46 43 47 50 52 55 55 61 63 66 68 74 76 77 76 77 78 77 76 74 75 73 70 69 69 72 73 72 73 71 72 71 70 69 69 69
10 12 12 16 22 22 23 27 29 39 38 43 41 39 38 47 49 51 54 56 58 63 66 68 74 76 77 77 77 78 77 76 74 76 75 73 72 74 72 72 72 71 72 71 71 67 68 69 70
9 12 11 14 23 26 24 30 31 40 43 43 39 38 36 42 47 50 50 55 58 61 65 68 72 75 76 77 77 76 77 76 75 76 76 73 76 74 73 72 72 71 71 71 70 69 70 68 69
11 9 11 12 18 22 25 27 33 39 43 42 40 39 37 34 44 49 51 53 58 60 63 67 69 74 76 76 77 77 77 77 76 75 75 74 75 74 73 72 71 70 70 71 70 69 70 69 69
13 13 13 16 28 23 25 26 27 34 38 41 39 39 37 39 37 45 50 53 55 58 60 64 67 69 74 75 76 77 77 77 76 75 75 75 74 76 74 72 71 70 69 70 69 68 67 68 68

GFSSGP_sfc_dewp_027.txt.gz
Dewpoint
74 73 71 65 61 59 53 53 53 52 54 60 59 60 58 62 56 54 68 70 71 71 73 72 75 75 75 77 77 77 77 77 78 78 77 77 76 76 77 76 75 75 74 74 74 74 73 73 73
72 71 65 62 56 52 53 53 54 55 59 62 62 59 58 58 62 65 68 70 70 71 71 73 76 76 75 76 77 77 76 76 77 77 77 77 76 76 75 75 74 74 74 74 74 73 73 73 73
69 68 63 59 56 52 51 53 54 59 60 58 60 58 60 61 64 65 67 68 69 69 71 73 76 76 76 76 76 76 76 76 76 77 77 76 75 75 75 74 74 74 74 74 73 73 73 73 73
66 69 68 60 52 52 50 50 53 55 58 60 58 57 60 63 63 66 66 66 69 71 73 76 76 75 76 76 76 76 76 76 77 77 76 76 74 74 74 74 74 73 73 74 74 73 73 73 72
68 66 59 56 49 48 47 48 53 54 56 57 58 58 60 62 64 64 65 67 68 70 73 74 77 77 77 76 76 76 75 75 77 77 76 76 75 74 74 73 73 73 73 73 74 73 72 72 72
65 65 56 50 44 47 47 49 55 54 58 59 59 58 60 63 63 64 66 67 69 70 72 74 76 77 77 76 76 75 75 75 77 77 76 76 76 75 75 73 73 72 72 73 73 73 73 72 71
64 60 53 52 44 39 47 49 53 55 56 57 59 58 60 62 63 64 66 67 68 70 71 73 74 75 77 77 76 75 75 75 76 76 76 76 74 73 73 73 73 72 72 72 72 73 74 74 73
61 59 52 46 37 36 46 46 53 54 55 59 60 60 61 63 64 65 65 67 68 70 72 72 73 74 74 74 75 75 75 75 75 75 74 74 74 73 73 75 75 73 72 72 72 73 74 75 76
61 56 51 46 35 36 40 46 50 55 56 57 57 61 63 64 63 63 65 67 68 70 71 72 73 73 73 73 73 75 75 75 75 74 75 76 73 71 74 74 75 73 73 74 73 75 75 76 75
58 54 47 45 44 37 40 46 48 51 54 55 56 59 62 61 62 64 64 65 66 68 70 71 71 73 72 71 72 73 73 73 73 73 73 74 72 73 73 75 75 74 73 74 74 74 66 73 72
55 50 46 45 45 42 37 40 43 45 52 54 55 57 60 61 63 63 63 64 65 67 68 69 71 72 71 69 72 72 72 72 72 71 72 73 74 72 74 73 74 71 75 73 73 73 69 70 70
47 46 42 45 43 40 38 39 42 45 47 55 56 55 56 61 62 62 63 63 64 65 66 67 67 69 70 71 71 71 71 71 71 72 74 72 71 69 70 72 72 73 73 73 73 71 71 71 71
46 46 41 41 42 41 37 38 43 44 54 56 56 56 56 56 60 62 64 65 65 65 66 67 69 71 71 70 69 70 70 71 71 71 72 70 69 71 72 71 71 71 71 71 71 72 72 71 69
43 45 41 36 37 39 40 37 42 46 55 56 56 56 57 55 55 60 61 65 64 64 66 68 69 72 70 72 73 73 71 68 70 72 72 71 71 73 72 73 72 71 71 71 73 72 72 72 71
29 30 40 39 30 38 40 36 40 46 52 55 56 56 57 57 56 57 62 63 63 63 65 68 69 72 71 71 72 71 72 69 67 72 73 72 72 72 73 72 72 72 73 71 72 72 72 72 71
25 24 22 28 29 32 40 41 38 44 49 53 55 55 56 57 56 58 60 64 63 64 67 69 68 69 71 72 73 71 69 70 71 71 71 72 74 73 72 71 72 73 73 73 71 69 70 69 66
19 20 21 25 29 34 39 43 42 40 48 49 52 53 54 55 56 58 60 62 63 63 67 66 68 69 71 72 74 72 71 72 71 70 71 71 74 74 73 73 73 73 72 71 71 69 69 63 61
17 20 20 23 32 33 41 42 41 41 44 48 50 52 53 53 55 57 59 61 64 64 68 67 68 70 71 73 73 73 72 73 72 70 72 72 74 74 73 71 72 71 71 71 69 68 65 62 63
19 20 21 24 33 34 42 43 42 42 45 46 49 50 51 53 54 57 58 61 63 65 68 66 68 72 71 71 72 72 71 72 72 73 73 73 73 73 72 72 71 71 71 69 69 64 60 62 64
17 19 21 23 33 37 44 45 44 41 42 45 46 49 50 52 53 56 57 59 62 65 67 67 69 73 71 71 72 71 70 72 71 71 71 72 73 73 72 72 71 72 71 69 63 63 62 63 64
17 18 20 25 36 38 43 47 44 41 44 46 46 48 50 51 52 55 56 58 61 64 68 68 70 73 72 73 73 73 73 73 72 70 72 73 74 74 72 72 72 71 69 65 64 63 62 62 64
15 19 21 22 32 33 41 39 46 44 44 46 43 45 46 49 51 54 56 58 60 64 68 68 71 73 72 73 71 70 69 69 70 70 69 73 73 73 73 73 71 69 67 66 64 64 64 63 58
14 21 21 22 22 38 38 35 39 46 45 45 44 43 44 47 49 53 57 57 60 64 66 70 70 73 71 71 72 71 71 69 68 68 71 72 72 72 72 73 70 66 67 68 65 63 64 65 65
11 16 20 21 22 29 35 34 35 38 43 46 47 45 43 45 47 51 55 58 59 63 67 70 70 71 73 70 72 72 72 69 66 70 71 71 70 70 71 71 68 66 67 66 65 66 64 64 64
7 10 15 19 20 20 35 35 37 37 42 45 44 45 45 45 46 47 54 57 59 62 65 70 71 71 72 73 73 73 73 71 69 70 68 69 68 69 69 70 68 66 66 67 67 65 64 63 63
5 5 13 17 19 19 25 33 36 39 41 45 44 45 44 47 46 47 50 55 59 60 65 70 71 71 73 73 73 73 72 74 71 71 69 66 68 67 68 69 68 67 65 69 67 65 65 65 63
11 6 7 11 18 22 22 25 30 39 41 42 42 41 42 44 48 48 49 53 58 60 64 67 72 72 73 74 73 73 73 72 74 72 72 69 67 68 69 69 68 67 66 67 67 66 65 65 64
8 12 6 6 8 14 17 23 30 37 40 42 42 40 42 49 48 49 49 52 58 60 63 66 72 72 73 72 74 74 74 73 73 73 71 71 68 70 69 70 69 70 67 68 67 65 67 65 66
12 8 9 8 10 12 16 19 29 42 42 42 42 42 43 44 47 48 51 52 58 60 62 66 71 72 73 74 73 74 75 74 73 73 72 71 70 71 69 70 69 68 69 69 67 65 65 66 65
13 8 9 13 15 18 14 16 27 26 43 42 42 41 41 41 44 48 51 53 57 60 61 65 71 72 73 74 74 73 74 75 74 72 72 73 70 72 71 70 70 68 67 69 67 65 65 66 65

GFSSGP_sfc_dewp_030.txt.gz
Dewpoint
72 72 71 64 60 58 54 54 51 53 55 58 59 59 59 61 55 54 68 70 70 71 72 72 75 75 76 77 77 77 77 77 77 77 76 75 75 75 75 75 75 74 74 74 74 73 73 73 73
72 70 67 63 57 52 52 54 52 55 58 60 58 59 59 59 63 67 68 70 70 71 72 73 75 76 76 77 77 77 76 75 77 77 77 76 75 75 75 74 74 74 74 74 73 73 73 73 73
70 66 64 59 56 52 51 55 56 59 59 59 58 60 60 62 65 66 69 70 70 71 72 73 76 76 76 76 77 77 77 76 77 76 75 75 75 75 74 74 74 74 74 73 73 73 73 72 72
67 68 65 58 55 54 52 57 58 58 58 59 58 59 62 65 65 67 70 69 70 71 72 75 76 75 75 76 76 75 75 75 76 75 75 75 75 74 74 74 74 74 74 74 73 72 72 72 72
68 66 59 57 52 51 54 57 58 57 57 58 59 59 60 64 66 68 68 68 70 71 74 74 76 76 76 76 75 75 75 75 76 75 75 75 75 74 73 73 73 73 73 74 73 72 72 72 72
65 65 56 51 52 49 54 57 56 56 58 59 60 60 61 65 66 66 68 69 71 73 74 74 76 77 76 75 75 75 75 75 75 75 75 75 75 74 73 73 72 72 73 73 73 72 72 71 71
60 59 53 52 53 52 54 57 56 58 58 58 60 59 61 62 64 67 68 69 71 73 73 73 74 74 76 77 75 74 75 75 75 75 75 75 74 74 73 72 72 72 72 72 72 72 72 72 72
63 60 52 49 45 46 54 57 58 59 58 60 60 59 59 62 65 67 68 69 70 72 73 73 73 74 75 75 75 74 75 75 75 75 75 75 74 74 73 75 74 73 72 72 72 72 74 74 74
61 54 48 48 43 46 54 55 58 57 58 58 60 60 62 63 64 66 66 68 69 71 72 73 73 74 74 73 73 75 75 75 75 74 75 75 73 73 73 74 74 74 73 73 72 73 72 74 74
55 51 47 48 45 44 51 54 55 56 58 58 59 61 62 63 64 64 66 67 69 70 71 72 73 73 73 73 72 73 73 73 73 73 73 74 73 71 71 74 75 74 73 74 73 73 69 69 71
55 50 49 47 47 46 52 55 56 56 56 57 59 61 62 63 63 64 66 68 69 69 71 72 72 73 72 71 72 72 72 72 72 71 71 73 73 72 73 73 74 71 73 72 73 73 70 71 71
49 48 45 43 44 41 52 53 55 55 54 57 60 62 62 62 63 64 65 67 68 69 70 71 72 72 71 70 72 71 71 71 71 71 71 72 72 71 71 72 71 72 72 72 73 72 71 71 71
48 46 45 44 42 41 41 44 53 52 55 58 60 62 61 61 63 64 65 66 67 68 69 70 71 71 70 70 70 70 71 71 71 70 71 72 69 70 70 71 72 72 72 71 71 71 71 71 69
48 46 45 43 39 41 38 42 46 54 56 57 59 60 60 62 63 63 63 64 66 67 67 68 68 71 70 70 69 70 70 71 71 70 72 71 70 71 71 71 70 71 71 71 73 71 71 71 71
32 41 45 44 41 40 39 45 51 55 56 54 54 58 61 62 62 62 63 64 64 64 66 66 67 69 70 69 69 71 71 70 70 70 71 71 71 71 71 71 71 71 72 71 71 70 71 70 70
21 24 23 28 41 40 38 42 53 55 55 54 54 55 57 60 62 62 64 64 64 65 66 68 67 69 69 70 71 70 69 69 70 71 71 71 72 72 72 71 71 72 72 72 70 69 68 64 61
20 17 19 21 29 40 42 42 51 55 55 55 55 55 56 56 57 61 64 64 64 64 66 68 67 70 70 71 72 69 69 69 70 71 71 71 73 73 72 71 72 72 72 71 70 68 66 60 59
17 18 19 21 26 39 41 40 47 54 55 55 55 56 56 56 56 59 64 64 63 64 66 68 67 68 69 71 72 71 70 71 71 69 70 70 73 73 72 71 72 71 71 70 68 67 64 61 62
17 18 19 21 25 41 39 39 42 51 53 54 54 55 55 55 56 57 63 64 63 66 67 68 67 68 68 71 71 71 70 71 71 70 71 72 73 74 72 71 71 71 70 69 68 63 59 59 63
16 15 16 20 23 38 42 39 40 47 50 52 53 53 54 55 55 57 60 62 63 65 66 67 68 69 69 69 70 70 70 71 71 71 72 72 72 73 71 71 71 71 71 68 62 61 60 62 62
16 14 15 19 24 41 42 43 44 43 46 49 51 52 53 53 53 55 57 61 62 62 66 66 68 70 69 71 71 71 71 71 71 70 71 71 72 73 72 71 71 71 69 63 62 62 60 60 62
16 17 16 19 23 31 39 36 44 44 41 43 48 50 51 53 53 55 56 60 61 63 65 65 68 71 70 71 70 69 69 68 69 70 71 71 73 73 72 71 70 67 68 63 63 64 64 59 58
17 18 19 19 21 29 39 37 39 44 44 43 45 48 50 51 52 53 56 57 61 62 64 66 67 71 71 71 70 69 69 69 69 69 69 71 72 72 72 72 70 66 66 64 64 63 64 63 62
18 14 15 21 21 28 26 36 36 39 43 44 46 46 49 50 52 52 55 56 59 62 64 66 67 70 71 71 70 69 69 69 68 68 70 71 71 71 72 71 68 66 66 66 64 62 63 64 63
14 10 10 11 13 17 28 34 33 38 44 44 44 45 46 49 50 52 54 55 58 61 64 66 68 69 70 71 70 69 69 69 68 68 70 70 69 69 70 70 67 64 66 65 64 65 63 62 62
10 7 9 10 15 17 22 30 33 37 42 46 45 46 44 46 48 51 53 56 57 60 64 67 67 67 69 69 71 71 70 70 70 69 69 70 69 68 69 68 66 64 66 66 65 64 64 63 62
13 7 7 10 24 19 21 28 31 39 40 45 45 46 45 44 46 49 53 55 57 60 64 67 68 67 70 70 69 69 71 71 72 71 68 68 67 67 69 68 67 65 64 67 66 64 64 65 63
12 10 10 7 4 6 14 21 24 30 39 42 45 45 45 45 44 46 48 54 57 59 63 67 68 67 69 70 70 70 70 70 72 72 70 67 67 67 68 68 67 66 64 67 66 65 64 64 64
14 8 19 5 6 5 9 10 21 25 35 40 44 44 44 44 46 46 47 51 55 59 62 67 68 68 69 70 70 70 71 70 70 73 71 70 67 68 67 69 67 67 65 65 66 64 65 64 64
18 13 9 9 8 14 7 9 21 22 33 42 42 43 43 44 46 48 47 48 53 58 60 65 69 68 69 71 71 71 71 71 71 70 72 71 70 68 68 68 68 68 66 66 66 65 64 65 64

GFSSGP_sfc_dewp_033.txt.gz
Dewpoint
72 72 71 65 60 58 52 53 52 54 56 59 59 58 59 61 56 54 67 69 71 71 73 72 75 75 75 76 76 76 76 75 76 75 75 75 75 75 74 74 74 74 74 74 74 73 73 73 73
71 71 66 61 54 50 51 54 52 56 58 59 60 60 59 59 64 66 67 70 70 71 72 73 75 76 75 76 76 76 76 76 75 75 75 75 75 74 74 74 74 73 73 73 73 73 73 73 73
71 67 61 59 55 51 51 54 56 58 59 59 58 60 60 61 65 66 68 70 71 71 72 73 75 76 75 75 76 76 76 76 75 75 75 75 74 74 74 73 73 73 73 74 73 73 73 73 72
65 66 64 58 54 55 53 57 58 57 58 59 60 60 63 65 65 68 69 70 70 71 72 74 75 75 75 75 75 76 75 75 75 75 75 75 74 74 74 73 74 73 74 74 72 72 73 73 72
69 66 58 55 51 54 54 58 58 57 57 58 59 59 62 65 68 68 68 69 70 71 72 73 76 76 75 75 75 74 75 75 75 75 74 74 74 73 73 73 73 73 73 73 73 72 72 72 72
61 65 56 52 52 53 56 58 57 57 59 59 60 60 62 67 67 68 69 69 70 72 73 73 74 75 75 74 74 74 74 75 75 75 74 75 74 73 73 73 72 72 73 72 72 72 72 71 71
59 58 53 51 52 53 55 58 57 58 58 58 60 59 63 66 68 68 68 69 70 73 74 73 72 73 74 75 74 74 75 75 75 75 75 75 74 73 73 72 72 72 72 72 72 72 72 72 71
62 60 53 52 52 52 56 57 58 57 58 60 61 59 61 65 67 68 69 69 72 73 73 73 73 72 73 73 74 74 74 75 75 75 75 75 74 73 73 75 73 73 72 72 72 72 72 72 73
63 53 48 48 51 52 56 57 58 59 58 58 59 60 62 64 67 67 68 69 71 72 73 73 73 73 74 73 73 74 74 75 75 75 75 75 73 73 73 74 74 72 73 73 73 72 71 73 74
55 51 46 48 47 53 56 57 57 58 57 58 59 60 63 65 66 66 67 67 69 70 72 73 73 73 73 73 72 73 72 74 74 73 73 74 73 72 70 73 74 73 73 72 73 73 69 71 72
55 52 49 48 46 54 55 56 56 57 55 58 59 60 62 64 66 66 67 67 68 70 71 72 73 73 73 72 72 72 72 72 72 72 72 72 73 72 72 73 73 71 72 72 73 72 70 70 71
52 51 51 44 51 52 54 55 55 56 55 58 60 61 62 63 64 65 66 67 68 69 70 72 73 73 72 71 72 72 72 71 71 71 70 71 71 71 71 72 71 71 72 71 72 72 70 70 70
50 46 45 45 43 52 55 55 55 56 57 59 61 61 61 62 64 65 66 67 69 69 70 71 72 72 71 70 71 70 71 71 71 70 70 71 71 70 70 71 72 71 72 72 72 70 70 70 70
45 44 42 43 43 51 54 54 55 56 57 60 61 61 61 62 63 64 66 67 68 69 69 70 71 71 71 70 70 70 70 70 70 70 70 71 71 70 71 71 70 71 72 71 71 71 70 70 71
34 37 40 45 45 44 47 47 53 55 57 59 60 61 62 62 63 64 65 66 67 68 69 69 70 71 71 70 70 69 69 70 70 70 70 71 70 71 71 71 70 70 71 71 72 70 70 68 67
22 25 22 25 41 42 41 40 50 56 56 58 60 60 61 61 63 64 65 66 67 67 68 69 69 70 70 70 70 69 69 70 70 70 71 71 71 72 71 70 70 71 72 72 70 69 66 62 60
20 21 20 22 32 39 40 42 53 55 56 57 59 60 60 61 63 63 64 64 66 66 66 67 68 68 70 70 70 70 70 69 69 70 71 71 71 72 72 70 71 71 72 71 70 68 65 60 58
20 17 18 20 25 38 40 43 53 55 55 55 57 59 60 61 62 62 63 64 65 65 66 67 67 68 69 70 70 70 69 69 70 70 71 71 72 72 72 70 71 71 70 70 68 66 63 60 61
19 18 18 21 32 40 40 42 53 54 54 53 53 56 58 60 62 62 63 64 64 65 65 67 67 68 69 69 70 69 68 69 71 70 70 70 72 73 72 70 71 70 70 69 67 63 59 58 62
18 18 17 19 22 28 33 41 52 54 54 54 54 54 55 56 57 59 62 64 64 64 65 66 67 68 69 68 69 70 70 70 70 71 70 72 72 73 72 70 70 70 70 68 66 61 60 61 62
19 17 17 17 25 33 40 41 47 53 54 55 55 55 55 55 55 57 60 63 63 63 65 66 67 67 68 68 69 70 70 70 70 70 70 72 72 72 72 71 70 70 70 67 62 61 60 59 62
19 20 19 18 20 18 39 36 42 48 52 52 54 55 55 55 55 55 60 62 62 63 65 66 67 67 67 68 68 67 67 67 69 70 70 70 71 72 72 71 70 70 69 65 62 62 60 59 60
20 22 19 21 18 21 26 34 38 43 47 48 50 53 54 55 55 55 56 60 62 63 65 66 67 68 68 69 68 68 67 68 69 69 70 70 71 72 72 71 70 68 67 64 63 63 64 59 60
23 21 16 20 18 18 17 30 29 41 42 43 45 50 52 53 54 55 55 58 61 62 63 66 66 68 69 69 69 69 68 68 68 68 69 69 70 71 72 71 70 66 67 64 63 63 64 64 63
19 15 15 11 14 13 15 26 22 35 42 42 43 44 50 51 52 53 54 55 59 61 62 65 66 68 69 69 69 69 68 68 68 67 68 69 69 69 71 71 69 65 65 65 64 62 62 63 62
17 16 15 9 11 12 20 22 23 34 38 43 43 44 45 50 51 53 54 54 56 60 62 64 65 67 69 70 69 69 69 68 68 68 68 69 70 70 71 71 69 65 65 65 64 64 63 62 62
16 14 15 9 25 14 19 23 31 33 36 39 43 44 45 47 50 51 53 53 55 58 61 64 65 66 69 69 69 69 69 69 69 68 68 69 70 70 70 70 69 66 65 65 64 63 63 63 61
17 12 8 8 7 7 10 18 22 32 31 39 41 44 45 46 48 50 51 53 55 57 60 63 65 65 67 69 69 69 69 69 69 70 69 69 69 69 69 69 68 66 64 65 65 63 63 64 63
16 13 14 9 9 7 6 8 20 28 34 38 42 45 45 46 46 48 50 52 54 56 59 63 65 65 66 68 68 69 69 70 70 70 70 68 68 67 68 69 67 66 63 66 65 64 63 63 63
18 14 11 10 6 10 7 9 18 23 26 34 39 44 46 47 46 46 47 50 52 56 58 62 64 65 65 68 68 68 68 69 69 70 71 69 67 67 67 68 67 66 65 63 65 65 64 63 62

GFSSGP_sfc_dewp_036.txt.gz
Dewpoint
72 72 71 67 60 57 52 53 52 55 55 59 59 58 58 61 56 55 67 70 70 70 72 72 75 75 75 76 76 76 76 76 76 76 76 75 75 74 74 74 74 74 74 74 73 73 73 73 72
71 71 67 60 54 49 49 54 53 56 59 60 60 60 60 60 63 66 67 70 71 71 72 72 76 76 75 76 76 76 75 75 75 75 75 75 75 74 74 73 73 74 73 73 73 73 73 72 71
71 68 59 58 54 50 51 54 57 58 59 59 59 61 60 61 64 66 68 70 71 72 72 73 75 76 75 75 76 76 75 75 75 75 75 75 74 74 73 73 73 73 74 73 73 73 73 72 72
68 66 64 56 52 54 53 57 57 58 58 60 60 60 63 64 65 68 69 70 71 72 73 74 75 75 75 75 75 76 75 75 75 75 75 74 74 74 73 73 73 73 74 73 73 73 73 72 72
68 65 55 54 51 54 54 58 58 57 58 59 60 60 62 66 68 68 69 70 71 72 73 73 76 75 75 75 75 75 75 75 74 74 74 74 74 73 73 73 73 73 74 73 73 72 72 72 72
60 64 54 51 51 53 57 58 58 58 59 60 60 60 63 67 67 68 69 69 71 72 73 73 75 75 75 74 75 75 75 75 75 74 74 74 73 73 72 72 72 72 73 73 72 72 72 71 71
58 57 52 51 52 53 56 58 58 58 58 58 60 60 63 65 67 67 69 69 71 72 73 72 72 73 75 74 74 74 74 75 75 74 74 74 73 72 72 72 72 72 72 72 72 72 72 71 72
60 56 52 53 52 52 57 57 59 57 58 60 61 59 61 65 67 68 69 70 72 73 73 72 72 72 73 73 74 74 74 75 75 75 74 74 73 72 73 75 73 73 72 72 72 71 71 72 72
63 53 50 50 50 53 57 56 58 59 58 59 60 61 62 67 68 68 68 69 71 72 72 72 72 72 73 73 73 74 74 75 75 74 74 74 74 73 73 74 74 72 72 72 71 71 71 72 72
56 51 49 49 51 54 56 57 57 58 57 58 59 63 65 66 67 67 67 67 68 70 72 72 72 73 74 73 73 73 72 74 75 74 74 74 74 74 73 72 74 72 72 72 72 72 70 71 73
55 53 52 48 49 56 56 57 58 57 55 58 59 62 64 66 66 66 66 66 67 69 71 73 73 73 74 73 72 72 72 73 74 73 73 73 74 73 73 74 73 74 73 74 73 73 71 70 72
54 54 54 50 48 54 56 57 56 56 54 58 61 63 64 65 65 66 67 67 68 70 70 72 73 73 73 72 72 72 72 72 72 72 72 71 72 72 72 72 73 73 74 73 72 73 72 72 71
55 53 49 50 49 55 56 56 55 56 58 60 61 62 64 65 65 66 67 67 67 69 70 72 73 73 72 71 72 71 71 72 72 71 71 71 71 72 71 72 73 72 72 74 73 72 72 72 71
43 50 48 42 43 51 54 55 56 57 58 59 60 61 63 64 65 65 66 67 67 68 69 71 72 73 72 71 70 71 71 71 71 71 70 71 71 72 72 72 72 73 73 73 73 73 72 72 72
31 32 35 44 44 50 54 53 54 57 59 59 60 61 62 63 64 65 66 67 68 68 69 70 71 72 72 70 70 70 70 70 70 70 71 72 72 72 72 72 71 72 73 72 73 71 71 68 66
22 24 22 27 44 48 53 50 53 56 58 59 59 60 61 62 63 65 66 67 68 69 69 70 70 71 71 70 70 70 69 69 70 70 71 72 72 72 72 72 72 72 73 73 71 70 68 65 63
22 23 21 24 38 40 50 43 47 56 56 59 59 60 60 61 63 64 65 67 68 68 69 69 70 70 71 71 70 70 70 70 70 71 71 72 72 73 72 72 72 73 73 73 72 70 67 64 62
22 18 20 23 24 38 41 40 47 55 55 58 59 60 61 61 62 63 65 66 67 68 69 69 69 70 70 71 71 70 70 70 70 70 71 72 72 73 73 72 72 73 72 72 70 69 65 63 64
23 19 20 24 28 37 36 41 52 54 55 56 58 59 60 60 62 63 64 65 66 67 67 68 69 69 69 70 70 70 69 70 70 71 71 72 72 73 73 72 72 72 71 71 69 66 64 62 63
20 20 20 21 20 23 25 38 53 54 55 56 58 59 59 60 61 63 64 64 65 66 66 67 68 69 69 69 70 70 70 70 70 72 71 72 72 73 72 72 71 72 70 70 69 66 63 63 63
21 20 20 21 21 26 39 38 50 54 55 55 56 58 59 60 60 62 63 63 64 65 66 67 68 68 69 69 70 70 70 71 70 71 71 71 72 73 73 72 72 72 71 69 68 65 64 62 64
20 21 20 19 18 16 36 28 44 52 53 54 54 54 56 57 59 60 62 62 64 65 66 67 68 68 69 70 69 69 68 68 69 70 71 71 72 72 73 72 72 72 71 70 67 65 63 64 63
21 22 20 18 17 19 26 31 36 49 52 53 54 54 54 55 56 57 58 62 63 65 65 66 67 68 69 69 69 69 69 68 69 70 71 71 72 73 73 72 72 71 70 70 67 65 65 63 63
23 20 18 20 18 17 17 23 23 42 50 52 54 55 55 55 56 56 57 60 62 64 65 65 67 68 69 69 69 69 68 68 68 69 70 70 71 72 73 72 71 71 70 68 66 66 66 65 65
20 18 16 15 15 15 17 22 20 37 43 49 52 53 54 56 56 56 56 57 61 63 64 65 67 67 68 69 69 69 69 69 69 68 69 70 70 71 72 72 71 69 69 68 67 66 66 66 65
18 17 18 12 13 15 19 18 21 28 42 44 47 49 51 53 55 56 57 57 58 62 64 65 67 67 68 69 69 69 69 69 69 69 69 69 70 70 72 72 72 70 68 68 67 65 64 66 65
18 17 16 12 23 11 16 21 25 31 32 43 43 44 45 48 53 54 56 56 57 60 63 64 66 67 68 69 69 69 70 70 69 70 69 69 70 71 71 72 71 69 68 67 66 65 65 65 65
16 17 15 12 13 10 12 19 20 31 30 35 40 43 44 45 48 52 54 55 56 58 61 64 65 66 67 69 69 69 70 70 70 70 69 69 70 71 71 71 71 69 68 67 66 65 65 65 64
16 13 13 15 13 11 9 13 23 29 28 26 30 41 44 45 46 49 52 54 55 56 60 62 64 65 66 69 69 69 69 70 70 70 70 69 70 71 70 71 70 69 67 67 66 66 65 65 65
20 18 11 15 11 11 12 12 21 21 28 32 30 32 44 47 47 48 50 52 54 56 58 61 63 64 65 67 69 69 70 70 70 70 70 70 70 70 70 70 70 69 68 67 66 65 65 65 65

GFSSGP_sfc_dewp_042.txt.gz
Dewpoint
71 70 70 68 62 56 52 51 52 52 53 56 56 56 57 61 59 58 69 69 68 68 71 72 75 75 76 77 77 77 76 75 75 75 75 75 74 74 74 74 74 74 74 73 73 73 73 72 72
69 69 68 61 57 47 46 51 51 53 56 58 58 57 57 59 64 66 69 68 68 69 69 71 75 76 76 76 77 76 75 75 75 75 75 75 74 74 74 74 73 74 73 73 73 73 72 71 71
69 67 61 57 50 48 47 50 53 56 57 56 57 59 59 61 65 67 68 68 69 70 70 73 75 76 76 76 76 76 76 75 75 75 75 75 74 74 74 73 74 73 73 74 73 73 72 72 71
67 64 61 58 47 50 50 53 55 56 57 57 57 59 61 64 64 67 67 68 68 68 69 73 75 75 76 75 75 75 75 75 75 75 74 74 74 74 74 74 74 73 73 73 73 73 72 72 71
66 62 55 51 47 50 52 54 55 54 55 57 57 59 61 64 66 66 67 66 66 66 69 71 76 76 76 75 75 75 75 75 75 74 74 73 73 74 73 74 73 74 73 72 72 72 72 71 71
62 59 50 43 42 49 54 55 54 54 56 57 58 60 64 66 66 66 66 65 64 64 66 70 75 75 76 75 75 75 75 75 75 74 74 73 74 73 73 73 73 74 73 72 72 71 71 72 72
61 53 45 42 44 45 53 55 54 54 56 56 59 59 64 64 66 66 65 64 64 64 65 68 70 73 75 76 75 75 75 74 74 74 74 74 73 73 72 72 72 72 72 72 71 71 71 72 73
58 52 45 44 43 46 54 55 56 53 55 58 59 58 61 64 65 65 65 64 65 64 65 68 70 70 72 73 75 75 75 75 74 74 74 73 73 73 73 73 73 72 71 71 71 71 71 72 73
59 50 43 43 44 49 55 54 56 55 57 57 58 58 62 64 64 64 64 64 65 64 64 64 66 69 70 70 71 74 74 74 75 74 74 73 71 71 71 72 73 71 71 70 71 70 72 73 74
54 49 44 46 46 48 54 54 55 53 55 56 57 59 63 63 64 64 64 64 65 64 64 64 65 66 69 66 71 71 68 68 69 71 72 71 73 74 71 72 72 72 71 71 71 71 70 72 68
51 48 47 45 46 49 52 54 55 52 52 55 57 60 62 62 63 63 63 64 65 65 63 63 66 68 68 68 68 68 67 67 70 74 73 73 73 73 71 70 70 71 71 69 70 70 68 66 67
49 48 50 46 45 46 51 53 54 53 51 53 58 60 61 62 61 61 62 63 64 66 65 65 67 70 70 67 67 66 64 66 66 68 73 73 70 72 73 69 70 72 69 71 71 70 70 69 68
50 45 48 48 46 44 49 52 52 54 53 53 59 60 61 61 61 62 62 62 64 65 66 66 69 71 71 71 67 66 65 64 64 67 69 69 69 73 72 73 70 71 71 70 70 71 70 68 66
44 45 44 43 43 40 46 49 53 54 56 55 58 59 60 60 61 62 62 63 64 65 65 66 68 70 71 71 72 70 68 65 66 65 67 71 70 73 70 70 70 70 70 73 70 70 68 67 68
41 38 34 32 37 37 46 46 51 54 57 57 57 59 59 60 61 62 62 63 64 64 65 67 69 69 72 72 72 71 66 65 64 64 69 71 72 73 76 71 69 70 72 72 71 71 70 68 67
30 29 27 32 34 36 42 40 50 55 57 57 57 58 58 60 60 61 61 62 64 64 66 68 66 68 71 72 72 69 66 65 64 64 66 70 72 74 74 70 71 72 72 70 71 73 68 66 62
25 24 27 32 32 35 41 40 43 54 55 56 57 57 57 59 60 61 61 63 64 66 67 68 69 67 70 72 71 70 70 67 64 65 67 71 72 74 74 70 71 77 74 71 70 70 69 66 64
23 24 26 32 31 36 41 40 41 49 52 54 57 57 58 57 58 60 62 63 64 65 67 69 69 70 72 70 72 68 66 66 64 65 67 70 72 74 75 71 74 74 71 70 71 72 68 66 64
23 24 25 31 31 33 36 39 40 43 50 51 55 57 57 57 58 60 61 62 63 65 67 69 70 73 71 69 68 66 64 65 64 66 70 73 75 75 76 74 74 73 72 72 72 71 70 64 66
21 22 24 29 29 29 32 33 36 37 46 50 53 56 57 57 58 60 61 62 62 65 68 70 71 73 73 70 70 67 66 64 64 67 72 74 74 75 75 75 72 73 70 74 73 73 66 66 65
23 23 24 25 28 27 29 30 32 34 40 45 49 54 56 57 57 59 60 61 62 64 68 70 73 73 74 74 70 70 67 67 66 68 70 73 74 74 76 75 74 74 73 69 73 72 71 63 62
20 20 20 22 26 26 28 27 34 34 39 45 47 51 54 56 57 57 58 60 61 64 67 70 73 74 74 75 72 74 67 64 65 68 68 70 74 73 73 75 76 76 71 73 72 71 70 70 59
18 16 19 19 21 24 25 25 29 34 35 42 46 49 53 55 56 57 57 59 60 63 65 69 72 75 75 75 75 71 72 64 66 67 74 76 75 74 72 74 75 75 73 74 74 73 73 68 61
19 17 20 20 18 19 25 24 26 28 37 38 44 47 52 53 55 58 59 58 60 62 64 67 72 76 76 75 74 76 75 71 68 70 69 69 69 70 74 73 74 75 75 75 74 75 74 72 67
19 17 15 14 14 15 21 22 28 28 29 36 39 45 50 54 55 57 59 59 60 62 64 67 73 76 76 74 75 75 76 75 75 74 70 71 67 67 73 75 75 75 76 75 76 75 73 73 69
20 17 12 17 9 10 18 19 22 27 29 32 36 37 48 52 55 56 59 61 61 62 66 68 73 75 74 74 76 77 78 71 71 74 70 68 67 66 72 73 74 75 75 75 76 73 72 72 71
22 19 13 8 13 10 9 17 21 24 27 30 30 34 38 48 53 55 57 59 62 64 67 70 73 75 76 74 77 77 77 76 72 76 76 71 74 68 71 72 74 75 75 76 76 72 73 71 72
20 20 13 12 17 16 8 16 16 25 27 29 29 32 36 43 50 53 55 57 60 62 66 69 73 75 75 73 75 74 75 77 76 76 76 76 75 74 71 73 73 74 75 76 76 73 73 73 70
18 18 18 13 13 12 11 10 19 24 29 28 29 34 38 42 48 52 55 56 59 61 62 66 70 73 73 73 75 75 75 74 76 74 76 76 76 77 75 75 74 73 74 75 76 75 72 73 72
18 20 20 16 23 17 15 11 12 19 20 28 30 33 36 40 43 48 49 54 56 59 60 62 65 68 70 72 75 75 76 75 74 75 75 76 77 77 77 76 75 73 73 75 75 74 71 72 71

GFSSGP_sfc_dewp_045.txt.gz
Dewpoint
70 68 68 68 62 60 51 48 50 51 53 55 56 57 59 60 59 58 68 69 68 67 70 71 75 76 77 78 77 77 76 75 75 75 75 74 74 74 74 74 74 74 73 73 73 73 72 72 72
67 66 67 65 59 53 45 50 50 54 54 56 56 57 57 60 65 66 67 68 65 67 68 70 76 76 76 77 77 76 75 75 75 75 75 74 74 74 73 73 73 73 73 73 73 73 72 71 71
67 67 63 61 58 49 46 50 52 53 55 55 56 60 59 62 65 66 65 65 65 67 69 73 76 76 76 76 76 76 75 75 75 75 75 74 74 74 74 73 73 73 74 73 73 73 72 71 71
67 64 62 59 54 46 48 49 52 53 55 56 57 57 61 64 66 65 64 64 67 69 69 74 76 76 75 75 76 75 75 75 75 75 74 74 74 74 74 74 74 73 73 73 73 73 72 71 70
66 63 57 53 45 46 47 49 53 54 54 54 58 58 62 64 65 65 64 67 66 67 69 73 76 76 75 75 75 75 75 75 75 74 74 74 74 73 74 73 74 73 73 72 72 72 72 71 70
64 60 57 53 40 43 47 50 49 51 54 56 59 60 62 65 64 65 65 66 67 67 67 71 75 76 76 75 75 75 75 75 74 74 74 74 73 73 73 74 74 73 72 72 72 71 72 72 72
63 55 51 39 38 44 46 49 48 50 54 55 59 59 64 64 64 66 65 66 66 65 67 70 71 74 75 75 75 75 74 75 75 74 74 73 73 73 72 72 73 72 72 71 71 71 71 72 72
57 53 48 40 36 41 46 48 48 51 53 57 60 60 61 65 65 64 65 64 63 64 66 67 70 70 72 73 75 74 74 74 74 74 73 73 73 73 73 73 73 72 71 71 71 71 71 72 73
56 49 49 45 48 43 45 43 48 52 54 56 56 60 63 65 65 63 63 63 64 63 64 63 66 68 69 70 72 74 74 74 74 73 74 73 72 74 72 74 73 71 71 71 71 71 73 73 73
52 48 55 43 48 45 47 45 45 49 53 54 56 61 63 64 64 63 63 63 63 63 62 61 63 65 67 64 71 70 68 68 71 72 72 74 72 71 72 73 73 72 72 72 72 72 72 73 74
49 45 56 41 43 45 45 49 48 45 50 52 56 60 61 62 62 63 63 64 64 62 60 59 63 66 65 67 67 66 65 66 68 73 72 73 71 73 74 72 73 72 73 72 72 71 72 70 71
45 44 46 43 43 42 44 49 48 48 45 52 56 60 60 61 61 63 62 64 63 62 61 61 64 70 68 66 65 64 62 64 65 68 73 73 71 70 70 72 72 75 74 72 71 71 69 71 71
44 43 43 46 44 42 45 47 49 48 47 51 56 59 60 60 60 61 61 62 62 62 61 62 65 70 70 70 66 64 63 63 63 67 71 69 68 71 73 72 73 73 72 73 72 73 68 70 66
41 43 41 44 42 41 42 45 47 50 50 52 56 58 59 59 60 61 61 61 62 62 62 62 65 69 70 71 72 67 65 63 64 64 67 71 69 70 68 72 73 74 73 72 70 73 73 73 67
39 39 40 42 41 39 40 42 45 50 53 53 55 57 58 59 60 60 61 61 62 62 63 64 66 68 71 71 71 69 65 63 63 63 69 71 72 73 74 73 73 74 72 72 71 70 69 71 68
38 38 36 38 36 38 39 39 43 50 53 53 55 55 56 58 58 60 61 61 62 62 64 65 64 66 70 72 71 68 65 63 63 62 65 70 72 73 75 73 74 76 71 70 74 69 72 70 64
30 29 34 33 34 35 36 41 54 50 52 53 55 56 55 57 58 60 60 61 62 63 65 66 66 65 69 73 71 70 72 66 63 62 64 72 72 73 74 75 74 73 72 68 73 71 70 69 64
26 25 27 30 32 34 34 36 47 48 49 51 54 56 56 54 56 59 60 60 61 63 65 68 66 71 74 71 73 68 65 65 64 62 64 72 72 73 74 71 73 72 73 70 74 72 71 63 60
26 23 24 28 33 33 36 37 41 45 47 46 51 55 55 54 56 57 59 59 60 62 65 69 71 75 71 68 68 66 64 65 63 63 69 71 72 73 77 72 73 71 72 72 71 71 69 65 61
29 24 23 25 30 33 34 37 40 41 45 47 48 54 55 55 55 57 59 59 60 63 67 71 73 76 74 70 70 67 67 62 63 63 71 71 72 75 74 75 73 76 73 73 71 71 65 62 61
28 26 24 23 27 32 32 34 35 37 39 45 45 52 54 56 56 56 57 59 59 62 67 70 74 75 75 74 71 71 69 67 63 64 66 70 73 73 75 75 74 74 73 75 73 71 69 69 59
16 21 22 22 25 28 30 28 35 34 36 39 42 47 52 54 57 56 56 58 58 61 64 71 75 76 75 77 72 73 66 63 62 64 65 69 74 73 73 74 73 74 71 77 72 69 70 70 61
18 16 21 23 24 27 28 28 30 34 34 35 39 41 48 52 55 55 56 57 58 59 61 67 75 77 76 76 76 70 71 64 63 63 73 75 77 75 72 75 75 73 71 75 73 73 74 69 64
18 17 17 19 20 21 26 27 28 28 35 35 39 41 44 50 53 55 57 56 57 57 60 64 74 77 77 77 77 77 74 71 64 67 66 67 67 71 76 73 76 77 75 75 74 75 74 73 68
17 14 13 14 15 17 21 24 29 28 29 34 35 40 42 48 52 54 56 56 58 59 62 64 74 77 78 77 76 76 77 76 75 74 68 70 65 65 73 77 77 74 77 76 77 77 75 74 71
17 14 12 18 12 12 20 21 24 28 28 29 35 37 42 46 51 54 56 57 58 61 64 67 73 76 77 77 77 78 78 71 70 72 68 67 65 65 75 77 76 76 76 76 78 73 73 75 72
19 16 12 10 10 8 9 19 21 24 26 29 31 34 39 44 49 52 55 56 57 61 66 68 72 76 77 77 78 78 78 77 72 74 75 70 73 66 72 73 75 76 76 77 78 72 75 75 74
19 18 12 11 18 16 11 17 17 25 25 26 29 33 35 42 48 51 53 57 59 59 63 68 71 75 76 76 77 77 78 78 77 76 76 75 75 76 73 74 74 75 77 77 78 74 76 76 72
17 18 17 12 12 13 14 13 18 25 27 26 28 31 32 36 44 48 52 55 59 60 61 65 69 72 75 76 76 77 77 77 78 76 76 77 78 79 76 77 76 76 76 77 78 77 75 75 75
18 19 21 20 24 14 14 15 17 18 19 25 27 31 31 36 40 46 50 54 56 60 60 62 66 68 73 74 76 76 77 77 77 77 76 77 78 79 79 77 77 76 76 77 77 76 72 75 74

GFSSGP_sfc_dewp_048.txt.gz
Dewpoint
70 67 69 68 62 61 54 50 50 52 54 55 56 57 59 62 59 56 67 67 66 68 70 73 76 77 77 77 77 77 76 76 76 76 76 75 75 75 75 74 74 74 74 74 73 73 72 72 72
67 66 68 66 61 53 50 50 53 54 55 57 57 58 58 60 63 65 65 64 66 66 69 72 76 77 77 77 77 76 75 75 75 76 76 75 75 75 74 74 74 74 74 74 73 73 72 72 72
66 66 66 62 58 53 49 52 54 54 55 56 57 58 59 62 62 64 64 64 66 67 69 74 76 77 77 77 77 76 76 75 76 75 75 74 74 74 74 73 74 74 74 74 73 73 72 72 72
67 66 64 57 54 54 50 54 52 55 55 58 58 58 62 64 62 64 64 64 66 69 70 75 76 76 77 76 76 76 76 75 76 76 74 75 74 74 74 74 73 73 73 73 73 72 72 71 71
66 65 60 58 56 52 49 52 54 53 55 56 59 60 62 64 65 65 62 64 66 69 70 73 76 77 76 76 76 76 76 75 75 75 74 74 74 75 74 75 74 73 73 73 73 72 72 71 71
64 64 55 51 48 46 46 52 54 54 57 58 59 61 62 64 62 61 64 66 69 68 68 72 75 76 76 76 76 76 75 75 74 74 74 74 74 74 74 75 74 73 73 72 72 72 72 72 72
61 60 56 54 48 44 45 48 48 54 53 58 60 60 62 63 61 61 66 65 67 65 69 73 73 74 76 76 76 76 75 74 75 74 74 74 73 73 74 74 74 73 72 72 72 72 72 72 72
58 54 52 50 40 41 45 46 46 52 55 58 61 60 61 63 62 64 64 66 65 66 69 72 73 72 73 73 75 74 74 74 74 74 74 73 73 73 73 75 75 73 73 72 72 72 72 72 71
55 54 54 50 45 40 44 45 51 53 55 57 60 61 63 64 64 64 64 65 66 67 67 66 68 72 72 72 72 74 74 74 74 73 73 73 74 75 74 75 75 73 73 72 72 72 71 72 73
51 52 53 53 52 48 49 42 47 49 51 55 60 63 63 64 64 63 62 64 66 65 64 64 66 67 70 66 74 74 71 71 73 73 71 72 75 74 72 73 76 75 75 74 74 72 72 73 74
48 49 52 52 51 49 54 55 46 47 48 57 60 62 62 63 63 63 62 63 64 66 62 62 66 69 68 70 71 70 70 70 73 75 75 74 75 76 73 74 73 73 75 73 72 73 72 71 72
44 47 50 52 50 48 54 56 42 46 48 56 60 62 62 63 62 62 62 62 63 65 62 62 68 71 72 71 68 69 67 69 70 72 75 77 73 75 72 73 74 75 73 74 74 73 74 70 71
42 44 49 51 46 50 56 58 46 44 49 55 59 61 61 62 62 63 63 62 64 64 62 64 69 72 76 73 70 69 70 69 69 73 74 75 72 75 73 73 74 75 76 73 74 72 73 70 70
41 42 42 43 47 42 47 52 47 45 48 54 58 59 60 60 62 63 63 63 65 62 62 65 69 72 74 76 78 74 74 70 72 72 74 76 76 74 73 75 73 75 75 75 74 75 74 71 71
37 38 40 41 41 41 39 46 46 49 49 51 55 58 57 59 62 63 62 64 64 62 63 66 67 70 74 75 75 75 74 68 71 72 75 75 77 77 77 73 76 72 75 77 73 74 74 71 71
37 36 36 40 41 41 39 37 50 55 57 51 53 56 57 57 57 62 63 63 63 61 65 67 62 69 72 74 75 74 71 71 73 71 72 74 76 78 79 76 73 76 76 74 74 75 73 72 72
36 32 35 36 39 38 38 36 52 55 56 52 53 53 55 57 57 59 59 61 62 64 67 66 67 68 71 74 74 73 74 74 72 72 73 75 76 76 77 76 75 76 76 73 73 71 75 71 71
32 32 33 34 37 35 34 34 47 49 53 51 53 54 55 55 56 59 59 60 62 65 68 68 68 73 73 73 75 72 72 72 72 73 72 76 76 76 78 75 74 76 72 75 74 75 74 71 68
32 32 28 29 33 33 33 38 46 54 57 55 51 55 53 54 57 59 59 60 62 64 68 69 71 74 72 72 71 71 69 72 72 73 73 76 76 76 79 77 73 77 75 75 75 75 73 71 67
32 29 25 25 28 33 34 35 50 55 56 56 56 61 55 54 55 59 60 60 61 65 68 71 72 74 73 72 72 71 72 70 70 72 74 75 75 77 76 76 77 76 73 76 75 76 72 71 69
31 30 27 23 24 34 34 33 38 50 51 55 59 56 54 55 54 57 59 60 61 64 68 70 72 75 74 73 73 74 73 74 70 69 71 73 75 76 77 77 77 77 75 76 75 75 73 68 67
25 31 29 25 23 22 33 30 39 38 41 51 48 50 51 54 56 55 57 59 60 64 67 71 73 74 74 75 72 73 68 67 68 69 70 72 74 75 77 77 76 77 77 75 76 75 75 73 68
22 23 26 26 24 22 23 29 32 40 37 36 43 44 51 52 55 55 56 59 60 62 66 69 73 74 75 74 75 71 71 68 69 69 73 73 76 76 76 77 78 77 76 76 76 76 75 76 72
17 16 18 22 22 22 24 29 31 33 39 35 39 40 49 51 54 56 57 58 59 61 65 68 72 74 75 75 74 76 72 72 67 69 70 72 74 75 77 77 77 77 76 76 76 78 76 76 76
15 14 14 15 17 20 23 24 32 33 36 35 37 39 42 51 53 57 58 57 60 61 63 66 73 74 75 75 75 74 76 73 73 76 68 71 70 72 74 76 78 76 77 78 77 78 77 76 75
16 14 16 20 15 14 22 23 27 32 32 35 37 39 40 45 53 56 58 59 60 60 63 66 71 74 75 74 75 75 75 75 71 73 71 69 70 70 75 75 75 76 76 76 78 77 76 76 75
17 15 13 13 12 11 14 21 22 28 29 31 29 37 40 42 51 55 57 58 59 60 63 65 70 74 75 75 76 76 75 75 74 73 74 74 73 71 77 75 75 76 77 77 77 75 76 76 76
17 17 13 13 19 19 13 23 22 29 31 31 29 31 37 43 47 53 56 59 59 59 62 65 69 73 75 75 76 76 76 75 74 75 73 73 75 76 77 76 76 76 76 77 77 76 76 76 75
16 17 16 12 14 15 15 14 22 32 31 32 31 33 33 40 46 50 54 58 60 60 60 64 67 72 74 75 76 76 76 76 75 73 74 74 75 76 78 77 76 75 76 76 77 76 75 75 75
17 18 20 21 26 18 19 15 24 24 28 28 30 33 34 39 46 49 53 57 59 60 60 62 64 67 73 75 76 76 76 77 76 75 74 75 76 77 76 77 76 76 75 76 76 75 73 75 74